Weather History for Molokai, HI

Change the Weather History Date:

Sunday, October 6, 2013

  Actual Average Record
Temperature  
Mean Temperature 78 °F -  
Max Temperature 82 °F 85 °F 92 °F (1973)
Min Temperature 73 °F 70 °F 65 °F (1957)
Cooling Degree Days 12    
Growing Degree Days 28 (Base 50)    
Moisture  
Dew Point 68 °F    
Average Humidity 75    
Maximum Humidity 85    
Minimum Humidity 62    
Precipitation  
Precipitation 0.00 in - - ()
Sea Level Pressure  
Sea Level Pressure 29.99 in    
Wind  
Wind Speed 10 mph (NE)    
Max Wind Speed 16 mph    
Max Gust Speed 29 mph    
Visibility 10 miles    
Events      
Averages and records for this station are not official NWS values.
T = Trace of Precipitation, MM = Missing Value Source: NWS Daily Summary

Daily Weather History Graph

Daily Weather History Graph

Search for Another Location

Airport:

Trip Planner

Search our weather history database for the weather conditions in past years. The results will help you decide how hot, cold, wet, or windy it might be!

Date:

Astronomy

Oct. 06, 2013 Rise Set
Actual Time 6:21 AM HST 6:11 PM HST
Civil Twilight 5:58 AM HST 6:33 PM HST
Nautical Twilight 5:33 AM HST 6:59 PM HST
Astronomical Twilight 5:07 AM HST 7:24 PM HST
Moon 8:00 AM HST (10/6) 7:38 PM HST (10/6)
Length of Visible Light 12h 34m
Length of Day
11h 50m
Waxing Crescent, 4% of the Moon is Illuminated
Oct 6
Waxing Crescent
Oct 11
First Quarter
Oct 18
Full
Oct 26
Last Quarter
Nov 3
New

Hourly Weather History & Observations

Time (HST) Temp. Heat Index Dew Point Humidity Pressure Visibility Wind Dir Wind Speed Gust Speed Precip Events Conditions
12:54 AM 73.9 °F - 69.1 °F 85% 29.99 in 10.0 mi NNE 6.9 mph - N/A   Clear
1:54 AM 73.9 °F - 66.0 °F 76% 29.98 in 10.0 mi NE 9.2 mph - N/A   Clear
2:54 AM 73.9 °F - 68.0 °F 82% 29.96 in 10.0 mi NE 12.7 mph - N/A   Clear
3:54 AM 73.9 °F - 66.9 °F 79% 29.96 in 10.0 mi NE 11.5 mph - N/A   Clear
4:54 AM 73.9 °F - 66.0 °F 76% 29.97 in 10.0 mi East 6.9 mph - N/A   Clear
5:54 AM 73.9 °F - 66.9 °F 79% 29.97 in 10.0 mi NNE 8.1 mph - N/A   Clear
6:54 AM 75.0 °F - 68.0 °F 79% 29.98 in 10.0 mi Variable 4.6 mph - N/A   Scattered Clouds
7:54 AM 77.0 °F - 66.9 °F 71% 30.00 in 10.0 mi NE 5.8 mph - N/A   Scattered Clouds
8:54 AM 80.1 °F 82.1 °F 66.0 °F 62% 30.02 in 10.0 mi NE 10.4 mph 20.7 mph N/A   Clear
9:54 AM 80.1 °F 82.3 °F 66.9 °F 64% 30.01 in 10.0 mi NE 11.5 mph 18.4 mph N/A   Scattered Clouds
10:54 AM 82.0 °F 84.9 °F 68.0 °F 62% 30.01 in 10.0 mi SSE 9.2 mph - N/A   Partly Cloudy
11:54 AM 81.0 °F 83.3 °F 66.9 °F 62% 30.00 in 10.0 mi NE 10.4 mph 19.6 mph N/A   Overcast
12:54 PM 82.0 °F 85.5 °F 69.1 °F 65% 29.97 in 10.0 mi NE 13.8 mph 20.7 mph N/A   Overcast
1:54 PM 81.0 °F 84.1 °F 69.1 °F 67% 29.95 in 10.0 mi NE 16.1 mph 23.0 mph N/A   Mostly Cloudy
2:54 PM 79.0 °F - 70.0 °F 74% 29.94 in 10.0 mi NE 15.0 mph 26.5 mph N/A   Scattered Clouds
3:54 PM 78.1 °F - 70.0 °F 76% 29.95 in 10.0 mi NE 16.1 mph 28.8 mph N/A   Overcast
5:54 PM 75.9 °F - 70.0 °F 82% 29.97 in 10.0 mi NE 13.8 mph 21.9 mph N/A   Overcast
7:54 PM 75.9 °F - 70.0 °F 82% 30.00 in 10.0 mi NNE 9.2 mph - N/A   Clear
8:54 PM 75.9 °F - 69.1 °F 79% 30.02 in 10.0 mi NE 6.9 mph - N/A   Clear
9:54 PM 75.9 °F - 69.1 °F 79% 30.01 in 10.0 mi NE 10.4 mph 17.3 mph N/A   Clear
10:54 PM 75.0 °F - 70.0 °F 84% 30.01 in 10.0 mi NNE 10.4 mph - N/A   Clear
11:54 PM 75.0 °F - 70.0 °F 84% 30.01 in 10.0 mi NNE 8.1 mph - N/A   Partly Cloudy